Saint Martin Island, Netherlands Antilles

5:26 PM on February 19, 2017 (GMT +0000)
Saint Martin Island

Weather History for 78866 - March, 2013

Change the Weather History Date:

Thursday, March 21, 2013

  Actual Average Record
Temperature  
Mean Temperature 79 °F -  
Max Temperature 82 °F 83 °F - ()
Min Temperature 76 °F 73 °F - ()
Cooling Degree Days 14    
Growing Degree Days 29 (Base 50)    
Moisture  
Dew Point 70 °F    
Average Humidity 72    
Maximum Humidity 83    
Minimum Humidity 61    
Precipitation  
Precipitation 0.00 in 0.08 in - ()
Sea Level Pressure  
Sea Level Pressure 29.94 in    
Wind  
Wind Speed 9 mph ()    
Max Wind Speed 14 mph    
Max Gust Speed -    
Visibility 6.2 miles    
Events      
T = Trace of Precipitation, MM = Missing Value Source: Averaged Metar Reports

Daily Weather History Graph

Daily Weather History Graph

Search for Another Location

Airport or City:

Trip Planner

Search our weather history database for the weather conditions in past years. The results will help you decide how hot, cold, wet, or windy it might be!

Date:

Astronomy

Mar. 21, 2013 Rise Set
Actual Time 10:15 AM UTC 10:23 PM UTC
Civil Twilight 9:53 AM UTC 10:45 PM UTC
Nautical Twilight 9:28 AM UTC 11:10 PM UTC
Astronomical Twilight 9:03 AM UTC 11:36 PM UTC
Moon 5:29 PM UTC (3/21) 5:52 AM UTC (3/21)
Length of Visible Light 12h 51m
Length of Day
12h 08m
Waxing Gibbous, 67% of the Moon is Illuminated
Mar 21
Waxing Gibbous
Mar 27
Full
Apr 3
Last Quarter
Apr 10
New
Apr 18
First Quarter

Hourly Weather History & Observations

Time (GMT) Temp. Heat Index Dew Point Humidity Pressure Visibility Wind Dir Wind Speed Gust Speed Precip Events Conditions
12:00 AM 77 °F - 69 °F 68% 29.96 in 28 mi ESE 8.1 mph - -   Partly Cloudy
12:00 AM 77.0 °F - 68.0 °F 74% 29.95 in 6.2 mi ESE 8.1 mph - N/A   Scattered Clouds
1:00 AM 77.0 °F - 68.0 °F 74% 29.95 in 6.2 mi East 10.4 mph - N/A   Scattered Clouds
2:00 AM 77.0 °F - 68.0 °F 74% 29.95 in 6.2 mi East 9.2 mph - N/A   Partly Cloudy
3:00 AM 77 °F - 66 °F 61% 29.97 in 28 mi SE 6.9 mph - -   Scattered Clouds
3:00 AM 77.0 °F - 66.2 °F 69% 29.95 in 6.2 mi ESE 5.8 mph - N/A   Partly Cloudy
4:00 AM 77.0 °F - 68.0 °F 74% 29.95 in 6.2 mi ESE 8.1 mph - N/A   Scattered Clouds
5:00 AM 77.0 °F - 68.0 °F 74% 29.92 in 6.2 mi ESE 9.2 mph - N/A   Mostly Cloudy
6:00 AM 77 °F - 68 °F 66% 29.91 in 28 mi SE 10.4 mph - -   Scattered Clouds
6:00 AM 77.0 °F - 68.0 °F 74% 29.89 in 6.2 mi ESE 10.4 mph - N/A   Partly Cloudy
7:00 AM 77.0 °F - 68.0 °F 74% 29.89 in 6.2 mi ESE 10.4 mph - N/A   Partly Cloudy
8:00 AM 77.0 °F - 68.0 °F 74% 29.89 in 6.2 mi ESE 10.4 mph - N/A   Partly Cloudy
9:00 AM 77 °F - 68 °F 67% 29.90 in 28 mi SE 10.4 mph - -   Scattered Clouds
9:00 AM 77.0 °F - 68.0 °F 74% 29.89 in 6.2 mi ESE 9.2 mph - N/A   Partly Cloudy
10:00 AM 77.0 °F - 68.0 °F 74% 29.92 in 6.2 mi ESE 8.1 mph - N/A   Partly Cloudy
11:00 AM 77.0 °F - 69.8 °F 78% 29.92 in 6.2 mi SE 9.2 mph - N/A   Partly Cloudy
12:00 PM 79 °F - 69 °F 64% 29.97 in 31 mi SSE 12.7 mph - -   Scattered Clouds
12:00 PM 78.8 °F - 69.8 °F 74% 29.95 in 6.2 mi SSE 12.7 mph - N/A   Partly Cloudy
1:00 PM 80.6 °F 83.9 °F 69.8 °F 70% 29.98 in 6.2 mi SE 13.8 mph - N/A   Partly Cloudy
2:00 PM 80.6 °F 83.9 °F 69.8 °F 70% 29.98 in 6.2 mi SE 13.8 mph - N/A   Partly Cloudy
3:00 PM 82 °F - 71 °F 62% 30.01 in 31 mi SE 11.5 mph - -   Scattered Clouds
3:00 PM 82.4 °F 87.2 °F 71.6 °F 70% 30.01 in 6.2 mi SE 11.5 mph - N/A   Partly Cloudy
4:00 PM 80.6 °F 84.6 °F 71.6 °F 74% 29.98 in 6.2 mi SE 9.2 mph - N/A   Partly Cloudy
5:00 PM 82.4 °F 87.2 °F 71.6 °F 70% 29.95 in 6.2 mi SE 10.4 mph - N/A   Partly Cloudy
6:00 PM 82 °F - 72 °F 66% 29.94 in 31 mi SE 11.5 mph - -   Partly Cloudy
6:00 PM 82.4 °F 88.2 °F 73.4 °F 74% 29.92 in 6.2 mi SE 11.5 mph - N/A   Scattered Clouds
7:00 PM 82.4 °F 88.2 °F 73.4 °F 74% 29.92 in 6.2 mi SE 12.7 mph - N/A   Mostly Cloudy
8:00 PM 82.4 °F 88.2 °F 73.4 °F 74% 29.89 in 6.2 mi SE 10.4 mph - N/A   Partly Cloudy
9:00 PM 81 °F - 73 °F 70% 29.92 in 31 mi SSE 10.4 mph - -   Mostly Cloudy
9:00 PM 80.6 °F 85.4 °F 73.4 °F 79% 29.89 in 6.2 mi SE 10.4 mph - N/A   Mostly Cloudy
10:00 PM 78.8 °F - 73.4 °F 83% 29.92 in 6.2 mi SE 10.4 mph - N/A   Scattered Clouds
11:00 PM 78.8 °F - 73.4 °F 83% 29.92 in 6.2 mi SSE 10.4 mph - N/A   Partly Cloudy